Location: New Canada
(47.1017°N, 68.5042°W)
Time: 23:39:12
(UTC+00:00)

ESTCUBE 1 - Visible Passes

Search period start: 18 April 2024 00:00
Search period end: 28 April 2024 00:00
Orbit: 635 x 649 km, 97.8° (Epoch: 18 April)

Date Brightness Start Highest point End Pass type
(mag) Time Alt. Az. Time Alt. Az. Time Alt. Az.
18 Apr ? 00:34:25 11° E 00:36:22 15° ENE 00:38:47 10° NNE visible
18 Apr ? 02:12:02 69° SW 02:12:22 73° WSW 02:16:48 10° NNW visible
19 Apr ? 00:58:40 19° E 01:00:11 23° ENE 01:03:41 10° NNE visible
19 Apr ? 02:36:17 41° WSW 02:36:32 41° W 02:40:44 10° NNW visible
20 Apr ? 01:22:55 32° ESE 01:24:05 38° ENE 01:28:10 10° N visible
20 Apr ? 03:00:32 24° W 03:00:45 24° W 03:04:23 10° NW visible
21 Apr ? 01:47:10 51° SE 01:48:03 65° ENE 01:52:26 10° N visible
21 Apr ? 03:24:47 14° W 03:25:03 14° W 03:27:29 10° NW visible
22 Apr ? 00:33:46 10° E 00:36:05 15° ENE 00:38:30 10° NNE visible
22 Apr ? 02:11:23 60° SSW 02:12:05 73° WSW 02:16:31 10° NNW visible
23 Apr ? 00:58:00 18° E 00:59:52 23° ENE 01:03:21 10° NNE visible
23 Apr ? 02:35:37 39° WSW 02:36:11 41° W 02:40:24 10° NNW visible
24 Apr ? 01:22:13 29° ESE 01:23:43 37° ENE 01:27:48 10° N visible
24 Apr ? 02:59:49 24° WSW 03:00:23 24° W 03:04:00 10° NW visible
25 Apr ? 01:46:24 44° SE 01:47:39 65° ENE 01:52:02 10° N visible
25 Apr ? 03:24:01 14° W 03:24:38 14° W 03:27:05 10° NW visible
26 Apr ? 00:33:14 10° E 00:35:38 15° ENE 00:38:03 10° NNE visible
26 Apr ? 02:10:36 51° S 02:11:38 74° WSW 02:16:04 10° NNW visible
27 Apr ? 00:57:10 16° ESE 00:59:23 23° ENE 01:02:52 10° NNE visible
27 Apr ? 02:34:47 37° SW 02:35:42 41° W 02:39:55 10° NNW visible
